[[{"header":{"parameterUnit":"m.s-1","parameterCategory":1,"la1":30.2991,"la2":30.254,"lo1":-89.0895,"lo2":-89.0444,"dy":0.0017,"dx":0.0017,"nx":28,"ny":28,"refTime":"2024-02-05T09:00:00:Z","depth":0,"parameterNumber":2,"parameterNumberName":"U-component_of_WINDS"},"data":[0,0,0,0,0,0,0,0,0,0,0,0,0,0,0,0,0,0,0,0,0,0,0,0,0,0,0,0,0,0,0,0,0,0,0,0,0,0,0,0,0,0,0,0,0,0,0,0,0,0,0,0,0,0,0,0,0,0,2.1154,2.1154,0,2.1149,2.1149,2.1149,2.109,2.1088,2.1087,2.1085,2.1081,2.1082,2.1083,0,0,0,0,0,0,0,0,0,0,0,0,0,2.1113,2.1114,2.1154,2.1154,2.1154,2.1149,2.1149,2.1149,2.109,2.1088,2.1086,2.1085,2.108,2.1082,2.1083,0,0,0,0,0,0,0,0,0,0,0,0,0,2.1122,2.1114,2.1154,2.1124,2.1121,2.1149,2.1149,2.1149,2.109,2.1088,2.1086,2.1084,2.108,2.1082,2.1084,2.114,0,0,2.1089,2.109,0,0,0,0,0,0,0,0,2.1121,2.1123,2.1128,2.1126,2.1123,2.1118,2.1133,2.1146,2.1091,2.1102,2.1085,2.1083,2.1095,2.1095,2.1099,2.114,2.114,2.109,2.1091,2.1091,2.1092,0,0,0,0,0,0,0,2.1121,2.1123,2.1152,2.1129,2.1125,2.1111,2.111,2.1135,2.1111,2.1101,2.1097,2.1097,2.1093,2.1098,2.1099,2.114,2.1089,2.1091,2.1092,2.1093,2.1227,2.123,0,0,0,0,0,0,2.1124,2.1123,2.1152,2.1152,2.1117,2.1113,2.1112,2.1122,2.1111,2.1107,2.1099,2.1094,2.1096,2.1097,2.1099,2.1165,2.1091,2.1093,2.1094,2.1225,2.1228,2.123,0,0,0,0,0,0,2.1123,2.1127,2.1152,2.1136,2.1138,2.1116,2.1128,2.1123,2.1128,2.1109,2.1105,2.1108,2.1094,2.1096,2.113,2.1164,2.1094,2.1096,2.1222,2.1226,2.1229,2.1297,0,0,0,0,0,0,2.1123,2.1127,2.1149,2.1137,2.114,2.1185,2.113,2.1124,2.1131,2.1125,2.1117,2.1113,2.1092,2.1128,2.1132,2.1165,2.1097,2.1219,2.1224,2.1228,2.1292,2.1303,2.1312,0,0,0,0,0,2.1121,2.1168,2.115,2.1154,2.1165,2.1187,2.1188,2.1163,2.1134,2.1155,2.1143,2.1113,2.1159,2.1132,2.1136,2.117,2.1217,2.1222,2.1228,2.1288,2.1301,2.1312,0,0,0,0,0,0,2.1183,2.1166,2.1146,2.119,2.119,2.1177,2.1202,2.1178,2.1186,2.118,2.1149,2.1147,2.1187,2.1182,2.1152,2.1225,2.1183,2.119,2.1227,2.1239,2.1249,2.125,2.1099,0,0,0,0,0,2.1202,2.1221,2.1204,2.1245,2.1246,2.1225,2.1233,2.1214,2.1213,2.1213,2.1203,2.1204,2.1218,2.1228,2.124,2.1291,2.1289,2.1316,2.1327,2.1335,2.1341,2.1368,2.138,2.1248,2.1248,2.1248,0,0,2.1242,2.1234,2.1248,2.1257,2.1255,2.1276,2.1225,2.1248,2.1263,2.1216,2.1248,2.1242,2.124,2.1283,2.1301,2.128,2.1377,2.1342,2.1349,2.135,2.1375,2.1387,2.1399,2.1252,2.1251,2.1251,0,0,2.1323,2.1319,2.1353,2.1352,2.135,2.1335,2.1344,2.1334,2.1328,2.136,2.1325,2.1342,2.1368,2.1368,2.1372,2.1455,2.1428,2.146,2.1512,2.1539,2.1549,2.1558,2.1589,2.16,2.1466,2.1466,2.1466,0,2.1372,2.1401,2.1374,2.14,2.1405,2.1364,2.1398,2.1398,2.14,2.1405,2.1381,2.1413,2.1409,2.1452,2.1472,2.1476,2.1485,2.146,2.155,2.1559,2.1567,2.1595,2.1607,2.147,2.1469,2.1469,2.1469,0,2.1462,2.1483,2.151,2.1513,2.1522,2.1552,2.1529,2.1541,2.1522,2.151,2.1543,2.1537,2.1548,2.1556,2.1537,2.1597,2.1584,2.1555,2.1513,2.1584,2.161,2.1621,2.1475,2.1474,2.1473,2.1472,0,0,2.1583,2.1571,2.1581,2.1583,2.1577,2.1593,2.1621,2.1632,2.1643,2.1646,2.1669,2.1692,2.1666,2.167,2.1651,2.1674,2.1741,2.1643,2.1642,2.1662,2.1807,2.1829,2.1842,2.1723,2.1725,2.1727,2.1808,0,2.1662,2.171,2.1686,2.1737,2.1756,2.1717,2.1742,2.1741,2.1731,2.1746,2.1735,2.1752,2.1716,2.1718,2.174,2.1729,2.177,2.1722,2.1745,2.1746,2.1747,2.1856,2.1878,2.1955,2.1818,2.1819,2.1821,0,2.1761,2.1768,2.1821,2.1813,2.182,2.1843,2.1851,2.1865,2.1864,2.1855,2.1861,2.1836,2.1863,2.1821,2.1859,2.1827,2.1835,2.1831,2.1833,2.1835,2.1788,2.186,2.1979,2.1991,2.1836,2.1835,2.1834,0,2.1844,2.1867,2.1902,2.1904,2.1895,2.1912,2.191,2.1906,2.1915,2.1922,2.1927,2.1937,2.1943,2.1952,2.1931,2.1902,2.1972,2.1927,2.1965,2.1966,2.1982,2.1981,2.2104,2.1987,2.1987,2.1986,2.1986,0,2.1935,2.1969,2.1939,2.1961,2.1998,2.1971,2.2008,2.2001,2.1999,2.2018,2.1985,2.2005,2.1975,2.1992,2.1976,2.201,2.2013,2.2006,2.2002,2.201,2.2011,2.2015,2.2009,2.1989,2.1989,2.1988,2.1988,0,2.2035,2.2016,2.2052,2.2041,2.2039,2.2067,2.2057,2.2077,2.2064,2.209,2.2094,2.2075,2.2093,2.2073,2.2089,2.2078,2.2124,2.2111,2.2125,2.2121,2.2161,2.2158,2.2291,2.2307,2.2179,2.218,2.2181,0,2.2094,2.212,2.2112,2.2123,2.2122,2.214,2.2148,2.2122,2.2132,2.2133,2.2153,2.2168,2.2179,2.2209,2.2196,2.2209,2.2196,2.2242,2.2198,2.2205,2.2198,2.2196,2.2199,2.2251,2.2253,2.2254,2.2255,0,2.2203,2.2192,2.2205,2.2216,2.2227,2.2233,2.2238,2.2248,2.2222,2.2235,2.2253,2.2261,2.2277,2.2293,2.2302,2.2299,2.2273,2.2269,2.2279,2.2287,2.2294,2.2291,2.215,2.2266,2.2265,2.2264,2.2264,2.2263,2.2284,2.2305,2.2303,2.2319,2.232,2.2325,2.2343,2.2333,2.2347,2.2359,2.2343,2.2365,2.2364,2.2373,2.2374,2.2391,2.2371,2.2385,2.2389,2.2393,2.2399,2.2291,2.2392,2.2392,2.2392,2.2391,2.2391,0,2.2391,2.2388,2.2403,2.241,2.2423,2.2397,2.2401,2.2413,2.2433,2.2435,2.2446,2.2467,2.2482,2.2471,2.2484,2.25,2.2488,2.2504,2.2503,2.2503,2.2415,2.2406,2.2513,2.2513,2.2513,2.2513,2.2513,2.2513,2.2448,2.2482,2.2472,2.2507,2.2503,2.2525,2.2529,2.2534,2.2535,2.256,2.2572,2.2565,2.2561,2.2574,2.2586,2.2583,2.2589,2.261,2.2602,2.2521,2.2509,2.2497,2.2488,2.2611,2.2611,2.2688,2.2688,2.2689]},{"header":{"parameterUnit":"m.s-1","parameterCategory":1,"la1":30.2991,"la2":30.254,"lo1":-89.0895,"lo2":-89.0444,"dy":0.0017,"dx":0.0017,"nx":28,"ny":28,"refTime":"2024-02-05T09:00:00:Z","depth":0,"parameterNumber":3,"parameterNumberName":"V-component_of_WINDS"},"data":[0,0,0,0,0,0,0,0,0,0,0,0,0,0,0,0,0,0,0,0,0,0,0,0,0,0,0,0,0,0,0,0,0,0,0,0,0,0,0,0,0,0,0,0,0,0,0,0,0,0,0,0,0,0,0,0,0,0,-3.6901,-3.6903,0,-3.7106,-3.7108,-3.7111,-3.7127,-3.7124,-3.7122,-3.712,-3.7334,-3.7341,-3.7349,0,0,0,0,0,0,0,0,0,0,0,0,0,-3.6527,-3.6533,-3.69,-3.6903,-3.6906,-3.7106,-3.7108,-3.7111,-3.7127,-3.7124,-3.7122,-3.7119,-3.7331,-3.7341,-3.735,0,0,0,0,0,0,0,0,0,0,0,0,0,-3.6706,-3.6536,-3.69,-3.6938,-3.6943,-3.7105,-3.7109,-3.7112,-3.7128,-3.7124,-3.7121,-3.7118,-3.7328,-3.734,-3.7351,-3.7491,0,0,-3.7387,-3.7392,0,0,0,0,0,0,0,0,-3.6696,-3.672,-3.6929,-3.6935,-3.6942,-3.7087,-3.7055,-3.7239,-3.7129,-3.7058,-3.712,-3.7116,-3.7255,-3.7272,-3.7318,-3.7501,-3.751,-3.7388,-3.7395,-3.74,-3.7403,0,0,0,0,0,0,0,-3.6684,-3.6711,-3.6982,-3.6932,-3.694,-3.6946,-3.6967,-3.709,-3.7173,-3.7064,-3.7065,-3.7089,-3.7257,-3.7307,-3.7323,-3.7513,-3.7388,-3.7398,-3.7405,-3.741,-3.7824,-3.7827,0,0,0,0,0,0,-3.6663,-3.6701,-3.6975,-3.6988,-3.6808,-3.6955,-3.6979,-3.7044,-3.7171,-3.7188,-3.7092,-3.7089,-3.7289,-3.731,-3.7331,-3.7505,-3.74,-3.7411,-3.7418,-3.782,-3.7824,-3.7829,0,0,0,0,0,0,-3.6655,-3.6688,-3.6967,-3.6845,-3.6881,-3.6965,-3.7037,-3.705,-3.7099,-3.7193,-3.7208,-3.7127,-3.7287,-3.7315,-3.7451,-3.7513,-3.7416,-3.7427,-3.7815,-3.7821,-3.7827,-3.7853,0,0,0,0,0,0,-3.6645,-3.6685,-3.6738,-3.6846,-3.6887,-3.7083,-3.7041,-3.7056,-3.7119,-3.7117,-3.723,-3.7245,-3.7286,-3.7434,-3.7463,-3.7527,-3.7436,-3.781,-3.7818,-3.7825,-3.7847,-3.7859,-3.7869,0,0,0,0,0,-3.6631,-3.6737,-3.674,-3.6773,-3.6955,-3.7086,-3.711,-3.7154,-3.7124,-3.7179,-3.7239,-3.7242,-3.7501,-3.7448,-3.7481,-3.7549,-3.7806,-3.7815,-3.7824,-3.7842,-3.7857,-3.7869,0,0,0,0,0,0,-3.6635,-3.6752,-3.6757,-3.69,-3.6983,-3.7089,-3.7159,-3.7168,-3.7262,-3.7257,-3.7309,-3.7334,-3.747,-3.7523,-3.7462,-3.7692,-3.7651,-3.7666,-3.7653,-3.7668,-3.7678,-3.7664,-3.7446,0,0,0,0,0,-3.6652,-3.6747,-3.6845,-3.6963,-3.7004,-3.7074,-3.7133,-3.716,-3.7248,-3.7284,-3.7354,-3.744,-3.7542,-3.7607,-3.7705,-3.7854,-3.788,-3.7918,-3.7929,-3.7938,-3.7951,-3.8037,-3.8055,-3.7858,-3.7858,-3.7858,0,0,-3.6689,-3.6765,-3.6822,-3.6965,-3.7033,-3.7132,-3.7104,-3.7209,-3.7284,-3.73,-3.7434,-3.7488,-3.7589,-3.7733,-3.78,-3.7781,-3.8011,-3.7949,-3.7955,-3.7965,-3.8048,-3.8066,-3.8083,-3.7864,-3.7863,-3.7862,0,0,-3.6808,-3.6874,-3.698,-3.7048,-3.715,-3.7196,-3.7222,-3.7326,-3.7363,-3.7498,-3.7512,-3.7603,-3.7775,-3.7847,-3.7906,-3.8053,-3.806,-3.8083,-3.8142,-3.8225,-3.824,-3.8254,-3.8309,-3.8328,-3.8096,-3.8096,-3.8096,0,-3.6842,-3.6991,-3.7034,-3.714,-3.7204,-3.7221,-3.7331,-3.7395,-3.7524,-3.7568,-3.7545,-3.7764,-3.7832,-3.7994,-3.803,-3.8077,-3.8109,-3.8071,-3.8234,-3.8249,-3.8263,-3.8316,-3.8336,-3.8099,-3.8098,-3.8098,-3.8098,0,-3.7028,-3.7132,-3.7205,-3.7329,-3.7401,-3.7508,-3.7569,-3.7637,-3.7658,-3.7707,-3.7845,-3.7928,-3.8044,-3.8084,-3.8106,-3.8251,-3.8236,-3.8223,-3.8183,-3.8283,-3.8334,-3.8354,-3.8102,-3.8101,-3.8101,-3.81,0,0,-3.7156,-3.7302,-3.7329,-3.7386,-3.75,-3.7582,-3.769,-3.7803,-3.7861,-3.795,-3.8044,-3.819,-3.8179,-3.8246,-3.8276,-3.8348,-3.8462,-3.8327,-3.833,-3.8351,-3.863,-3.864,-3.8663,-3.8467,-3.8471,-3.8474,-3.8622,0,-3.7289,-3.7482,-3.7524,-3.7691,-3.7789,-3.7807,-3.7902,-3.7984,-3.8033,-3.8124,-3.8178,-3.8282,-3.8259,-3.83,-3.8371,-3.8433,-3.8519,-3.8423,-3.8557,-3.8561,-3.8533,-3.8689,-3.87,-3.8836,-3.8642,-3.8645,-3.8648,0,-3.747,-3.7563,-3.7739,-3.7842,-3.7884,-3.7969,-3.8077,-3.8163,-3.8256,-3.8287,-3.8362,-3.8385,-3.8501,-3.8453,-3.8615,-3.8548,-3.8606,-3.8644,-3.8651,-3.8667,-3.8612,-3.8711,-3.888,-3.8901,-3.8679,-3.8676,-3.8674,0,-3.7548,-3.7717,-3.7845,-3.7893,-3.8015,-3.8075,-3.8129,-3.8219,-3.8284,-3.8379,-3.8423,-3.8529,-3.8589,-3.8672,-3.8723,-3.8683,-3.8882,-3.8838,-3.8913,-3.8912,-3.8955,-3.8952,-3.9138,-3.8989,-3.8989,-3.8988,-3.8988,0,-3.7694,-3.7802,-3.7881,-3.796,-3.8082,-3.8131,-3.8251,-3.8305,-3.8385,-3.8476,-3.8499,-3.8584,-3.8646,-3.8741,-3.8782,-3.8911,-3.8937,-3.8967,-3.8977,-3.8966,-3.8963,-3.9006,-3.8999,-3.8994,-3.8992,-3.8991,-3.899,0,-3.7802,-3.786,-3.8001,-3.8105,-3.8134,-3.8219,-3.831,-3.8388,-3.8437,-3.8553,-3.8583,-3.8661,-3.8774,-3.8833,-3.8974,-3.9002,-3.9148,-3.9151,-3.9116,-3.9121,-3.9193,-3.9186,-3.9415,-3.9448,-3.9275,-3.9276,-3.9277,0,-3.7892,-3.7976,-3.8089,-3.8151,-3.8206,-3.8306,-3.8373,-3.8424,-3.8494,-3.8607,-3.8673,-3.8786,-3.888,-3.906,-3.913,-3.9239,-3.9247,-3.9319,-3.9263,-3.925,-3.9251,-3.9246,-3.9256,-3.9329,-3.9331,-3.9332,-3.9333,0,-3.8047,-3.8071,-3.8166,-3.8272,-3.8351,-3.8438,-3.8523,-3.8573,-3.8638,-3.8715,-3.8831,-3.8903,-3.9047,-3.9161,-3.9275,-3.9333,-3.9346,-3.935,-3.9374,-3.9365,-3.9342,-3.9358,-3.9145,-3.9345,-3.9344,-3.9343,-3.9343,-3.9342,-3.8151,-3.8226,-3.8318,-3.8424,-3.8493,-3.8573,-3.8652,-3.8711,-3.8808,-3.8928,-3.8953,-3.9075,-3.9169,-3.9323,-3.9384,-3.9482,-3.9467,-3.9501,-3.951,-3.9518,-3.9522,-3.9324,-3.9503,-3.9502,-3.9502,-3.9502,-3.9502,0,-3.8308,-3.8368,-3.8465,-3.8583,-3.8667,-3.867,-3.8764,-3.8835,-3.8942,-3.9027,-3.9119,-3.9253,-3.9363,-3.9443,-3.9556,-3.9619,-3.9628,-3.9647,-3.9644,-3.9658,-3.9528,-3.9497,-3.9638,-3.9638,-3.9638,-3.9638,-3.9638,-3.9638,-3.84,-3.8529,-3.8565,-3.8729,-3.8789,-3.8908,-3.8962,-3.9037,-3.9105,-3.9253,-3.9344,-3.9395,-3.9479,-3.9598,-3.97,-3.9721,-3.9763,-3.9782,-3.9804,-3.9681,-3.9667,-3.9653,-3.9624,-3.979,-3.979,-3.9926,-3.9927,-3.9928]}]]